Time,TemperatureF,DewpointF,PressureIn,WindDirection,WindDirectionDegrees,WindSpeedMPH,WindSpeedGustMPH,Humidity,HourlyPrecipIn,Conditions,Clouds,dailyrainin,SoftwareType,DateUTC
2013-05-31 00:00:00,61.9,58.6,29.93,East,94,0.0,1.0,89,0.00,,---,0.00,VWS V14.01,2013-05-31 07:00:00,
2013-05-31 00:05:00,61.9,58.6,29.93,East,94,0.0,1.0,89,0.00,,---,0.00,VWS V14.01,2013-05-31 07:05:00,
2013-05-31 00:10:00,61.9,58.6,29.93,East,94,0.0,1.0,89,0.00,,---,0.00,VWS V14.01,2013-05-31 07:10:00,
2013-05-31 00:15:00,61.9,58.6,29.93,East,94,0.0,1.0,89,0.00,,---,0.00,VWS V14.01,2013-05-31 07:15:00,
2013-05-31 00:20:00,61.9,58.6,29.93,East,94,0.0,1.0,89,0.00,,---,0.00,VWS V14.01,2013-05-31 07:20:00,
2013-05-31 00:25:00,61.8,58.5,29.93,West,267,0.0,2.0,89,0.00,,---,0.00,VWS V14.01,2013-05-31 07:25:00,
2013-05-31 00:30:00,61.8,58.5,29.93,West,277,0.0,0.0,89,0.00,,---,0.00,VWS V14.01,2013-05-31 07:30:00,
2013-05-31 00:35:00,61.8,58.5,29.93,South,179,0.0,1.0,89,0.00,,---,0.00,VWS V14.01,2013-05-31 07:35:00,
2013-05-31 00:40:00,61.7,58.4,29.93,ESE,119,0.0,6.0,89,0.00,,---,0.00,VWS V14.01,2013-05-31 07:40:00,
2013-05-31 00:45:00,61.7,58.4,29.93,ESE,116,0.0,6.0,89,0.00,,---,0.00,VWS V14.01,2013-05-31 07:45:00,
2013-05-31 00:50:00,61.7,58.4,29.93,ESE,116,0.0,6.0,89,0.00,,---,0.00,VWS V14.01,2013-05-31 07:50:00,
2013-05-31 00:55:00,61.7,58.4,29.93,ESE,117,0.0,6.0,89,0.00,,---,0.00,VWS V14.01,2013-05-31 07:55:00,
2013-05-31 01:00:00,61.7,58.4,29.93,ESE,104,0.0,1.0,89,0.00,,---,0.00,VWS V14.01,2013-05-31 08:00:00,
2013-05-31 01:05:00,61.7,58.4,29.92,ESE,104,0.0,1.0,89,0.00,,---,0.00,VWS V14.01,2013-05-31 08:05:00,
2013-05-31 01:10:00,61.7,58.4,29.92,SSE,151,0.0,4.0,89,0.00,,---,0.00,VWS V14.01,2013-05-31 08:10:00,
2013-05-31 01:15:00,61.7,58.4,29.92,ESE,102,0.0,4.0,89,0.00,,---,0.00,VWS V14.01,2013-05-31 08:15:00,
2013-05-31 01:20:00,61.7,58.4,29.92,ESE,102,0.0,4.0,89,0.00,,---,0.00,VWS V14.01,2013-05-31 08:20:00,
2013-05-31 01:25:00,61.7,58.4,29.92,East,84,0.0,4.0,89,0.00,,---,0.00,VWS V14.01,2013-05-31 08:25:00,
2013-05-31 01:30:00,61.7,58.4,29.92,East,84,0.0,0.0,89,0.00,,---,0.00,VWS V14.01,2013-05-31 08:30:00,
2013-05-31 01:35:00,61.7,58.4,29.93,East,84,0.0,0.0,89,0.00,,---,0.00,VWS V14.01,2013-05-31 08:35:00,
2013-05-31 01:40:00,61.8,58.5,29.93,ESE,111,0.0,1.0,89,0.00,,---,0.00,VWS V14.01,2013-05-31 08:40:00,
2013-05-31 01:45:00,61.8,58.5,29.93,ESE,111,0.0,1.0,89,0.00,,---,0.00,VWS V14.01,2013-05-31 08:45:00,
2013-05-31 01:50:00,61.8,58.5,29.92,ESE,111,0.0,1.0,89,0.00,,---,0.00,VWS V14.01,2013-05-31 08:50:00,
2013-05-31 01:55:00,61.9,58.6,29.92,ESE,111,0.0,1.0,89,0.00,,---,0.00,VWS V14.01,2013-05-31 08:55:00,
2013-05-31 02:00:00,61.9,58.3,29.92,ESE,112,0.0,1.0,88,0.00,,---,0.00,VWS V14.01,2013-05-31 09:00:00,
2013-05-31 02:05:00,61.9,58.3,29.92,ESE,112,0.0,1.0,88,0.00,,---,0.00,VWS V14.01,2013-05-31 09:05:00,
2013-05-31 02:10:00,61.9,58.3,29.92,SE,124,0.0,5.0,88,0.00,,---,0.00,VWS V14.01,2013-05-31 09:10:00,
2013-05-31 02:15:00,61.8,58.2,29.92,ESE,114,0.0,5.0,88,0.00,,---,0.00,VWS V14.01,2013-05-31 09:15:00,
2013-05-31 02:20:00,61.8,58.2,29.92,SE,142,0.0,5.0,88,0.00,,---,0.00,VWS V14.01,2013-05-31 09:20:00,
2013-05-31 02:25:00,61.7,58.1,29.92,SE,142,0.0,5.0,88,0.00,,---,0.00,VWS V14.01,2013-05-31 09:25:00,
2013-05-31 02:30:00,61.7,58.1,29.92,SE,142,0.0,0.0,88,0.00,,---,0.00,VWS V14.01,2013-05-31 09:30:00,
2013-05-31 02:35:00,61.6,58.0,29.92,SE,142,0.0,0.0,88,0.00,,---,0.00,VWS V14.01,2013-05-31 09:35:00,
2013-05-31 02:40:00,61.6,58.0,29.92,SE,142,0.0,4.0,88,0.00,,---,0.00,VWS V14.01,2013-05-31 09:40:00,
2013-05-31 02:45:00,61.5,57.9,29.92,SE,141,0.0,4.0,88,0.00,,---,0.00,VWS V14.01,2013-05-31 09:45:00,
2013-05-31 02:50:00,61.5,57.9,29.92,SE,141,4.0,4.0,88,0.00,,---,0.00,VWS V14.01,2013-05-31 09:50:00,
2013-05-31 02:55:00,61.4,57.8,29.92,SE,141,0.0,5.0,88,0.00,,---,0.00,VWS V14.01,2013-05-31 09:55:00,
2013-05-31 03:00:00,61.3,57.7,29.92,SE,140,0.0,1.0,88,0.00,,---,0.00,VWS V14.01,2013-05-31 10:00:00,
2013-05-31 03:05:00,61.3,58.0,29.92,SE,140,0.0,1.0,89,0.00,,---,0.00,VWS V14.01,2013-05-31 10:05:00,
2013-05-31 03:10:00,61.3,57.7,29.92,SE,140,0.0,1.0,88,0.00,,---,0.00,VWS V14.01,2013-05-31 10:10:00,
2013-05-31 03:15:00,61.3,57.7,29.92,SE,140,0.0,1.0,88,0.00,,---,0.00,VWS V14.01,2013-05-31 10:15:00,
2013-05-31 03:20:00,61.2,57.6,29.92,SE,140,0.0,2.0,88,0.00,,---,0.00,VWS V14.01,2013-05-31 10:20:00,
2013-05-31 03:25:00,61.1,57.8,29.92,SE,140,0.0,2.0,89,0.00,,---,0.00,VWS V14.01,2013-05-31 10:25:00,
2013-05-31 03:30:00,61.1,57.8,29.92,SE,140,0.0,0.0,89,0.00,,---,0.00,VWS V14.01,2013-05-31 10:30:00,
2013-05-31 03:35:00,61.0,57.7,29.92,SE,140,0.0,1.0,89,0.00,,---,0.00,VWS V14.01,2013-05-31 10:35:00,
2013-05-31 03:40:00,61.0,57.7,29.91,SE,140,0.0,1.0,89,0.00,,---,0.00,VWS V14.01,2013-05-31 10:40:00,
2013-05-31 03:45:00,60.9,57.6,29.91,SE,140,0.0,1.0,89,0.00,,---,0.00,VWS V14.01,2013-05-31 10:45:00,
2013-05-31 03:50:00,60.8,57.5,29.91,SE,140,0.0,1.0,89,0.00,,---,0.00,VWS V14.01,2013-05-31 10:50:00,
2013-05-31 03:55:00,60.8,57.5,29.91,SE,140,0.0,1.0,89,0.00,,---,0.00,VWS V14.01,2013-05-31 10:55:00,
2013-05-31 04:00:00,60.8,57.5,29.91,SE,140,0.0,0.0,89,0.00,,---,0.00,VWS V14.01,2013-05-31 11:00:00,
2013-05-31 04:05:00,60.7,57.4,29.91,SE,140,0.0,0.0,89,0.00,,---,0.00,VWS V14.01,2013-05-31 11:05:00,
2013-05-31 04:10:00,60.7,57.4,29.92,SE,140,0.0,0.0,89,0.00,,---,0.00,VWS V14.01,2013-05-31 11:10:00,
2013-05-31 04:15:00,60.7,57.4,29.91,SE,140,0.0,0.0,89,0.00,,---,0.00,VWS V14.01,2013-05-31 11:15:00,
2013-05-31 04:20:00,60.7,57.4,29.92,SE,140,0.0,0.0,89,0.00,,---,0.00,VWS V14.01,2013-05-31 11:20:00,
2013-05-31 04:25:00,60.7,57.4,29.91,SE,140,0.0,0.0,89,0.00,,---,0.00,VWS V14.01,2013-05-31 11:25:00,
2013-05-31 04:30:00,60.7,57.4,29.91,SE,140,0.0,0.0,89,0.00,,---,0.00,VWS V14.01,2013-05-31 11:30:00,
2013-05-31 04:35:00,60.7,57.4,29.91,SE,140,1.0,5.0,89,0.00,,---,0.00,VWS V14.01,2013-05-31 11:35:00,
2013-05-31 04:40:00,60.7,57.4,29.91,SE,140,0.0,5.0,89,0.00,,---,0.00,VWS V14.01,2013-05-31 11:40:00,
2013-05-31 04:45:00,60.7,57.4,29.91,SE,140,0.0,5.0,89,0.00,,---,0.00,VWS V14.01,2013-05-31 11:45:00,
2013-05-31 04:50:00,60.7,57.4,29.91,SE,140,0.0,5.0,89,0.00,,---,0.00,VWS V14.01,2013-05-31 11:50:00,
2013-05-31 04:55:00,60.7,57.4,29.91,East,84,0.0,5.0,89,0.00,,---,0.00,VWS V14.01,2013-05-31 11:55:00,
2013-05-31 05:00:00,60.7,57.4,29.91,East,84,0.0,1.0,89,0.00,,---,0.00,VWS V14.01,2013-05-31 12:00:00,
2013-05-31 05:05:00,60.7,57.4,29.91,East,84,0.0,1.0,89,0.00,,---,0.00,VWS V14.01,2013-05-31 12:05:00,
2013-05-31 05:10:00,60.8,57.5,29.91,East,84,0.0,1.0,89,0.00,,---,0.00,VWS V14.01,2013-05-31 12:10:00,
2013-05-31 05:15:00,60.8,57.5,29.92,East,84,0.0,1.0,89,0.00,,---,0.00,VWS V14.01,2013-05-31 12:15:00,
2013-05-31 05:20:00,60.8,57.5,29.92,East,84,0.0,1.0,89,0.00,,---,0.00,VWS V14.01,2013-05-31 12:20:00,
2013-05-31 05:25:00,60.8,57.5,29.92,East,84,0.0,1.0,89,0.00,,---,0.00,VWS V14.01,2013-05-31 12:25:00,
2013-05-31 05:30:00,60.8,57.5,29.92,East,84,0.0,0.0,89,0.00,,---,0.00,VWS V14.01,2013-05-31 12:30:00,
2013-05-31 05:35:00,60.8,57.5,29.92,East,84,0.0,0.0,89,0.00,,---,0.00,VWS V14.01,2013-05-31 12:35:00,
2013-05-31 05:40:00,60.9,57.6,29.92,East,84,0.0,0.0,89,0.00,,---,0.00,VWS V14.01,2013-05-31 12:40:00,
2013-05-31 05:45:00,60.9,57.6,29.92,East,84,0.0,0.0,89,0.00,,---,0.00,VWS V14.01,2013-05-31 12:45:00,
2013-05-31 05:50:00,60.9,57.6,29.93,East,84,0.0,0.0,89,0.00,,---,0.00,VWS V14.01,2013-05-31 12:50:00,
2013-05-31 05:55:00,60.9,57.6,29.93,East,84,0.0,0.0,89,0.00,,---,0.00,VWS V14.01,2013-05-31 12:55:00,
2013-05-31 06:00:00,60.9,57.6,29.93,East,84,0.0,0.0,89,0.00,,---,0.00,VWS V14.01,2013-05-31 13:00:00,
2013-05-31 06:05:00,60.9,57.6,29.93,East,84,0.0,0.0,89,0.00,,---,0.00,VWS V14.01,2013-05-31 13:05:00,
2013-05-31 06:10:00,60.9,57.6,29.93,East,84,0.0,0.0,89,0.00,,---,0.00,VWS V14.01,2013-05-31 13:10:00,
2013-05-31 06:15:00,61.0,57.7,29.93,East,84,0.0,0.0,89,0.00,,---,0.00,VWS V14.01,2013-05-31 13:15:00,
2013-05-31 06:20:00,61.0,57.7,29.93,East,84,0.0,0.0,89,0.00,,---,0.00,VWS V14.01,2013-05-31 13:20:00,
2013-05-31 06:25:00,61.0,58.0,29.93,East,84,0.0,0.0,90,0.00,,---,0.00,VWS V14.01,2013-05-31 13:25:00,
2013-05-31 06:30:00,61.1,58.2,29.93,East,84,0.0,0.0,90,0.00,,---,0.00,VWS V14.01,2013-05-31 13:30:00,
2013-05-31 06:35:00,61.1,57.8,29.94,East,84,0.0,0.0,89,0.00,,---,0.00,VWS V14.01,2013-05-31 13:35:00,
2013-05-31 06:40:00,61.2,57.9,29.94,East,84,0.0,1.0,89,0.00,,---,0.00,VWS V14.01,2013-05-31 13:40:00,
2013-05-31 06:45:00,61.3,58.0,29.94,East,84,0.0,1.0,89,0.00,,---,0.00,VWS V14.01,2013-05-31 13:45:00,
2013-05-31 06:50:00,61.2,57.9,29.94,East,84,0.0,1.0,89,0.00,,---,0.00,VWS V14.01,2013-05-31 13:50:00,
2013-05-31 06:55:00,61.3,58.0,29.94,East,84,0.0,1.0,89,0.00,,---,0.00,VWS V14.01,2013-05-31 13:55:00,
2013-05-31 07:00:00,61.4,58.1,29.94,East,84,0.0,0.0,89,0.00,,---,0.00,VWS V14.01,2013-05-31 14:00:00,
2013-05-31 07:05:00,61.4,58.1,29.94,East,84,0.0,0.0,89,0.00,,---,0.00,VWS V14.01,2013-05-31 14:05:00,
2013-05-31 07:10:00,61.5,58.2,29.94,East,84,0.0,0.0,89,0.00,,---,0.00,VWS V14.01,2013-05-31 14:10:00,
2013-05-31 07:15:00,61.6,58.0,29.94,East,84,1.0,1.0,88,0.00,,---,0.00,VWS V14.01,2013-05-31 14:15:00,
2013-05-31 07:20:00,61.6,58.0,29.94,East,84,0.0,2.0,88,0.00,,---,0.00,VWS V14.01,2013-05-31 14:20:00,
2013-05-31 07:25:00,61.6,58.0,29.95,ESE,110,0.0,4.0,88,0.00,,---,0.00,VWS V14.01,2013-05-31 14:25:00,
2013-05-31 07:30:00,61.7,58.1,29.94,ESE,110,0.0,2.0,88,0.00,,---,0.00,VWS V14.01,2013-05-31 14:30:00,
2013-05-31 07:35:00,61.7,57.8,29.95,ESE,110,0.0,2.0,87,0.00,,---,0.00,VWS V14.01,2013-05-31 14:35:00,
2013-05-31 07:40:00,61.7,58.1,29.95,ESE,110,0.0,2.0,88,0.00,,---,0.00,VWS V14.01,2013-05-31 14:40:00,
2013-05-31 07:45:00,61.7,57.8,29.95,ESE,110,0.0,2.0,87,0.00,,---,0.00,VWS V14.01,2013-05-31 14:45:00,
2013-05-31 07:50:00,61.7,58.1,29.95,ESE,110,0.0,2.0,88,0.00,,---,0.00,VWS V14.01,2013-05-31 14:50:00,
2013-05-31 07:55:00,61.8,58.2,29.95,ESE,110,0.0,2.0,88,0.00,,---,0.00,VWS V14.01,2013-05-31 14:55:00,
2013-05-31 08:00:00,61.9,58.0,29.95,ESE,110,0.0,0.0,87,0.00,,---,0.00,VWS V14.01,2013-05-31 15:00:00,
2013-05-31 08:05:00,62.0,58.1,29.95,ESE,110,0.0,0.0,87,0.00,,---,0.00,VWS V14.01,2013-05-31 15:05:00,
2013-05-31 08:10:00,62.2,58.3,29.95,ESE,110,0.0,0.0,87,0.00,,---,0.00,VWS V14.01,2013-05-31 15:10:00,
2013-05-31 08:15:00,62.3,58.4,29.95,ESE,110,0.0,1.0,87,0.00,,---,0.00,VWS V14.01,2013-05-31 15:15:00,
2013-05-31 08:20:00,62.4,58.2,29.95,ESE,110,0.0,1.0,86,0.00,,---,0.00,VWS V14.01,2013-05-31 15:20:00,
2013-05-31 08:25:00,62.5,58.3,29.95,ESE,110,0.0,2.0,86,0.00,,---,0.00,VWS V14.01,2013-05-31 15:25:00,
2013-05-31 08:30:00,62.6,58.4,29.95,ESE,110,0.0,1.0,86,0.00,,---,0.00,VWS V14.01,2013-05-31 15:30:00,
2013-05-31 08:35:00,62.8,58.6,29.95,ESE,110,0.0,1.0,86,0.00,,---,0.00,VWS V14.01,2013-05-31 15:35:00,
2013-05-31 08:40:00,63.0,58.4,29.95,ESE,110,0.0,1.0,85,0.00,,---,0.00,VWS V14.01,2013-05-31 15:40:00,
2013-05-31 08:45:00,63.2,58.6,29.95,ESE,110,0.0,1.0,85,0.00,,---,0.00,VWS V14.01,2013-05-31 15:45:00,
2013-05-31 08:50:00,63.4,58.5,29.95,ESE,110,0.0,1.0,84,0.00,,---,0.00,VWS V14.01,2013-05-31 15:50:00,
2013-05-31 08:55:00,63.5,58.2,29.95,ESE,110,0.0,1.0,83,0.00,,---,0.00,VWS V14.01,2013-05-31 15:55:00,
2013-05-31 09:00:00,63.3,58.4,29.96,SSE,155,0.0,4.0,84,0.00,,---,0.00,VWS V14.01,2013-05-31 16:00:00,
2013-05-31 09:05:00,63.2,58.3,29.95,SE,134,0.0,4.0,84,0.00,,---,0.00,VWS V14.01,2013-05-31 16:05:00,
2013-05-31 09:10:00,63.3,58.4,29.96,SE,134,0.0,4.0,84,0.00,,---,0.00,VWS V14.01,2013-05-31 16:10:00,
2013-05-31 09:15:00,63.6,58.7,29.96,SE,134,0.0,4.0,84,0.00,,---,0.00,VWS V14.01,2013-05-31 16:15:00,
2013-05-31 09:20:00,64.0,58.7,29.96,SE,134,0.0,4.0,83,0.00,,---,0.00,VWS V14.01,2013-05-31 16:20:00,
2013-05-31 09:25:00,64.2,58.9,29.95,SE,134,0.0,4.0,83,0.00,,---,0.00,VWS V14.01,2013-05-31 16:25:00,
2013-05-31 09:30:00,64.1,58.5,29.96,SE,134,0.0,0.0,82,0.00,,---,0.00,VWS V14.01,2013-05-31 16:30:00,
2013-05-31 09:35:00,64.4,58.8,29.95,SE,134,0.0,1.0,82,0.00,,---,0.00,VWS V14.01,2013-05-31 16:35:00,
2013-05-31 09:40:00,64.9,59.3,29.95,SE,134,0.0,1.0,82,0.00,,---,0.00,VWS V14.01,2013-05-31 16:40:00,
2013-05-31 09:45:00,65.2,58.9,29.95,SE,135,0.0,1.0,80,0.00,,---,0.00,VWS V14.01,2013-05-31 16:45:00,
2013-05-31 09:50:00,65.3,59.0,29.95,WSW,250,0.0,4.0,80,0.00,,---,0.00,VWS V14.01,2013-05-31 16:50:00,
2013-05-31 09:55:00,65.5,59.2,29.95,SSW,211,1.0,4.0,80,0.00,,---,0.00,VWS V14.01,2013-05-31 16:55:00,
2013-05-31 10:00:00,65.6,59.3,29.95,SE,142,1.0,1.0,80,0.00,,---,0.00,VWS V14.01,2013-05-31 17:00:00,
2013-05-31 10:05:00,66.1,59.4,29.95,WSW,240,0.0,1.0,79,0.00,,---,0.00,VWS V14.01,2013-05-31 17:05:00,
2013-05-31 10:10:00,66.3,59.6,29.95,WSW,245,0.0,4.0,79,0.00,,---,0.00,VWS V14.01,2013-05-31 17:10:00,
2013-05-31 10:15:00,66.8,59.4,29.95,SSW,207,0.0,4.0,77,0.00,,---,0.00,VWS V14.01,2013-05-31 17:15:00,
2013-05-31 10:20:00,66.9,59.8,29.95,SE,134,0.0,5.0,78,0.00,,---,0.00,VWS V14.01,2013-05-31 17:20:00,
2013-05-31 10:25:00,67.1,59.7,29.95,SSW,213,0.0,5.0,77,0.00,,---,0.00,VWS V14.01,2013-05-31 17:25:00,
2013-05-31 10:30:00,67.1,59.7,29.95,SW,223,0.0,2.0,77,0.00,,---,0.00,VWS V14.01,2013-05-31 17:30:00,
2013-05-31 10:35:00,67.1,59.3,29.95,South,181,0.0,2.0,76,0.00,,---,0.00,VWS V14.01,2013-05-31 17:35:00,
2013-05-31 10:40:00,67.6,59.8,29.95,NE,45,0.0,5.0,76,0.00,,---,0.00,VWS V14.01,2013-05-31 17:40:00,
2013-05-31 10:45:00,68.3,60.1,29.94,ESE,104,1.0,7.0,75,0.00,,---,0.00,VWS V14.01,2013-05-31 17:45:00,
2013-05-31 10:50:00,69.1,60.5,29.94,South,172,0.0,7.0,74,0.00,,---,0.00,VWS V14.01,2013-05-31 17:50:00,
2013-05-31 10:55:00,69.3,59.9,29.94,WNW,295,0.0,7.0,72,0.00,,---,0.00,VWS V14.01,2013-05-31 17:55:00,
2013-05-31 11:00:00,70.2,60.8,29.94,SE,135,0.0,1.0,72,0.00,,---,0.00,VWS V14.01,2013-05-31 18:00:00,
2013-05-31 11:05:00,70.9,60.2,29.94,SSW,206,3.0,5.0,69,0.00,,---,0.00,VWS V14.01,2013-05-31 18:05:00,
2013-05-31 11:10:00,70.3,60.5,29.94,SE,132,0.0,8.0,71,0.00,,---,0.00,VWS V14.01,2013-05-31 18:10:00,
2013-05-31 11:15:00,70.4,60.2,29.94,SSE,165,0.0,8.0,70,0.00,,---,0.00,VWS V14.01,2013-05-31 18:15:00,
2013-05-31 11:20:00,70.8,60.1,29.94,SE,134,2.0,8.0,69,0.00,,---,0.00,VWS V14.01,2013-05-31 18:20:00,
2013-05-31 11:25:00,71.3,60.6,29.94,SW,217,3.0,8.0,69,0.00,,---,0.00,VWS V14.01,2013-05-31 18:25:00,
2013-05-31 11:30:00,71.5,60.4,29.94,ESE,115,0.0,6.0,68,0.00,,---,0.00,VWS V14.01,2013-05-31 18:30:00,
2013-05-31 11:35:00,72.0,60.5,29.93,NE,38,0.0,6.0,67,0.00,,---,0.00,VWS V14.01,2013-05-31 18:35:00,
2013-05-31 11:40:00,72.0,60.0,29.93,South,172,0.0,7.0,66,0.00,,---,0.00,VWS V14.01,2013-05-31 18:40:00,
2013-05-31 11:45:00,72.2,60.7,29.93,SW,228,0.0,7.0,67,0.00,,---,0.00,VWS V14.01,2013-05-31 18:45:00,
2013-05-31 11:50:00,72.6,60.2,29.94,ESE,120,1.0,9.0,65,0.00,,---,0.00,VWS V14.01,2013-05-31 18:50:00,
2013-05-31 11:55:00,72.5,60.5,29.93,SE,141,1.0,9.0,66,0.00,,---,0.00,VWS V14.01,2013-05-31 18:55:00,
2013-05-31 12:00:00,72.3,59.9,29.93,SSW,196,0.0,5.0,65,0.00,,---,0.00,VWS V14.01,2013-05-31 19:00:00,
2013-05-31 12:05:00,72.5,60.5,29.93,SW,217,0.0,8.0,66,0.00,,---,0.00,VWS V14.01,2013-05-31 19:05:00,
2013-05-31 12:10:00,73.5,60.6,29.93,SW,216,0.0,8.0,64,0.00,,---,0.00,VWS V14.01,2013-05-31 19:10:00,
2013-05-31 12:15:00,73.6,60.2,29.93,SSW,193,0.0,8.0,63,0.00,,---,0.00,VWS V14.01,2013-05-31 19:15:00,
2013-05-31 12:20:00,73.7,60.3,29.93,SSW,200,0.0,8.0,63,0.00,,---,0.00,VWS V14.01,2013-05-31 19:20:00,
2013-05-31 12:25:00,74.0,60.6,29.93,SSW,206,0.0,8.0,63,0.00,,---,0.00,VWS V14.01,2013-05-31 19:25:00,
2013-05-31 12:30:00,74.5,60.2,29.92,SSW,211,0.0,7.0,61,0.00,,---,0.00,VWS V14.01,2013-05-31 19:30:00,
2013-05-31 12:35:00,75.0,60.7,29.92,ESE,115,0.0,8.0,61,0.00,,---,0.00,VWS V14.01,2013-05-31 19:35:00,
2013-05-31 12:40:00,76.2,60.4,29.92,SSW,206,0.0,8.0,58,0.00,,---,0.00,VWS V14.01,2013-05-31 19:40:00,
2013-05-31 12:45:00,76.1,60.3,29.92,WNW,298,0.0,8.0,58,0.00,,---,0.00,VWS V14.01,2013-05-31 19:45:00,
2013-05-31 12:50:00,75.9,60.1,29.92,SE,141,0.0,8.0,58,0.00,,---,0.00,VWS V14.01,2013-05-31 19:50:00,
2013-05-31 12:55:00,75.8,60.0,29.92,NW,311,0.0,9.0,58,0.00,,---,0.00,VWS V14.01,2013-05-31 19:55:00,
2013-05-31 13:00:00,75.6,59.8,29.92,North,5,0.0,11.0,58,0.00,,---,0.00,VWS V14.01,2013-05-31 20:00:00,
2013-05-31 13:05:00,76.4,60.5,29.92,West,265,0.0,11.0,58,0.00,,---,0.00,VWS V14.01,2013-05-31 20:05:00,
2013-05-31 13:10:00,77.2,60.3,29.91,SSW,194,4.0,11.0,56,0.00,,---,0.00,VWS V14.01,2013-05-31 20:10:00,
2013-05-31 13:15:00,76.8,59.9,29.91,SE,133,7.0,11.0,56,0.00,,---,0.00,VWS V14.01,2013-05-31 20:15:00,
2013-05-31 13:20:00,76.5,59.7,29.91,SE,124,4.0,11.0,56,0.00,,---,0.00,VWS V14.01,2013-05-31 20:20:00,
2013-05-31 13:25:00,77.1,60.2,29.90,South,171,1.0,11.0,56,0.00,,---,0.00,VWS V14.01,2013-05-31 20:25:00,
2013-05-31 13:30:00,77.4,60.0,29.90,SSE,149,1.0,6.0,55,0.00,,---,0.00,VWS V14.01,2013-05-31 20:30:00,
2013-05-31 13:35:00,77.4,60.0,29.90,SE,141,0.0,7.0,55,0.00,,---,0.00,VWS V14.01,2013-05-31 20:35:00,
2013-05-31 13:40:00,78.3,60.3,29.90,SSW,201,1.0,7.0,54,0.00,,---,0.00,VWS V14.01,2013-05-31 20:40:00,
2013-05-31 13:45:00,78.7,59.6,29.90,West,266,1.0,7.0,52,0.00,,---,0.00,VWS V14.01,2013-05-31 20:45:00,
2013-05-31 13:50:00,79.1,60.0,29.90,SE,127,1.0,7.0,52,0.00,,---,0.00,VWS V14.01,2013-05-31 20:50:00,
2013-05-31 13:55:00,79.6,59.9,29.90,SSE,168,0.0,8.0,51,0.00,,---,0.00,VWS V14.01,2013-05-31 20:55:00,
2013-05-31 14:00:00,80.2,60.5,29.89,WSW,240,0.0,3.0,51,0.00,,---,0.00,VWS V14.01,2013-05-31 21:00:00,
2013-05-31 14:05:00,80.6,60.3,29.89,West,268,1.0,5.0,50,0.00,,---,0.00,VWS V14.01,2013-05-31 21:05:00,
2013-05-31 14:10:00,80.4,60.1,29.89,SE,128,2.0,7.0,50,0.00,,---,0.00,VWS V14.01,2013-05-31 21:10:00,
2013-05-31 14:15:00,80.7,59.8,29.89,ESE,107,0.0,7.0,49,0.00,,---,0.00,VWS V14.01,2013-05-31 21:15:00,
2013-05-31 14:20:00,81.2,59.7,29.89,West,262,3.0,7.0,48,0.00,,---,0.00,VWS V14.01,2013-05-31 21:20:00,
2013-05-31 14:25:00,81.4,59.8,29.89,South,169,0.0,7.0,48,0.00,,---,0.00,VWS V14.01,2013-05-31 21:25:00,
2013-05-31 14:30:00,81.6,60.0,29.88,ESE,111,1.0,5.0,48,0.00,,---,0.00,VWS V14.01,2013-05-31 21:30:00,
2013-05-31 14:35:00,82.3,61.2,29.89,ESE,113,0.0,6.0,49,0.00,,---,0.00,VWS V14.01,2013-05-31 21:35:00,
2013-05-31 14:40:00,82.4,61.3,29.88,ESE,123,2.0,10.0,49,0.00,,---,0.00,VWS V14.01,2013-05-31 21:40:00,
2013-05-31 14:45:00,82.2,61.2,29.88,NW,315,0.0,10.0,49,0.00,,---,0.00,VWS V14.01,2013-05-31 21:45:00,
2013-05-31 14:50:00,82.1,61.1,29.88,SE,137,10.0,10.0,49,0.00,,---,0.00,VWS V14.01,2013-05-31 21:50:00,
2013-05-31 14:55:00,81.6,61.2,29.88,WNW,300,0.0,10.0,50,0.00,,---,0.00,VWS V14.01,2013-05-31 21:55:00,
2013-05-31 15:00:00,82.0,61.5,29.88,SSW,197,7.0,7.0,50,0.00,,---,0.00,VWS V14.01,2013-05-31 22:00:00,
2013-05-31 15:05:00,81.9,60.9,29.88,SSE,161,0.0,7.0,49,0.00,,---,0.00,VWS V14.01,2013-05-31 22:05:00,
2013-05-31 15:10:00,82.3,61.2,29.88,WNW,285,2.0,7.0,49,0.00,,---,0.00,VWS V14.01,2013-05-31 22:10:00,
2013-05-31 15:14:00,82.3,61.2,29.88,SSW,202,0.0,8.0,49,0.00,,---,0.00,VWS V14.01,2013-05-31 22:14:00,
2013-05-31 15:19:00,82.2,61.2,29.88,South,178,0.0,8.0,49,0.00,,---,0.00,VWS V14.01,2013-05-31 22:19:00,
2013-05-31 15:24:00,81.9,60.9,29.87,North,5,0.0,8.0,49,0.00,,---,0.00,VWS V14.01,2013-05-31 22:24:00,
2013-05-31 15:29:00,82.4,61.3,29.87,SSE,165,0.0,6.0,49,0.00,,---,0.00,VWS V14.01,2013-05-31 22:29:00,
2013-05-31 15:34:00,82.4,61.3,29.87,SSE,158,1.0,7.0,49,0.00,,---,0.00,VWS V14.01,2013-05-31 22:34:00,
2013-05-31 15:39:00,81.9,60.9,29.87,SSE,162,6.0,7.0,49,0.00,,---,0.00,VWS V14.01,2013-05-31 22:39:00,
2013-05-31 15:44:00,81.6,61.7,29.86,SE,130,4.0,8.0,51,0.00,,---,0.00,VWS V14.01,2013-05-31 22:44:00,
2013-05-31 15:49:00,81.4,61.0,29.86,SW,219,0.0,8.0,50,0.00,,---,0.00,VWS V14.01,2013-05-31 22:49:00,
2013-05-31 15:54:00,81.7,61.8,29.86,WNW,298,3.0,8.0,51,0.00,,---,0.00,VWS V14.01,2013-05-31 22:54:00,
2013-05-31 15:59:00,81.5,61.7,29.86,NW,306,0.0,1.0,51,0.00,,---,0.00,VWS V14.01,2013-05-31 22:59:00,
2013-05-31 16:04:00,81.8,61.4,29.86,SSW,195,3.0,8.0,50,0.00,,---,0.00,VWS V14.01,2013-05-31 23:04:00,
2013-05-31 16:09:00,81.3,61.5,29.86,SE,145,0.0,8.0,51,0.00,,---,0.00,VWS V14.01,2013-05-31 23:09:00,
2013-05-31 16:14:00,80.6,61.4,29.86,SE,126,0.0,8.0,52,0.00,,---,0.00,VWS V14.01,2013-05-31 23:14:00,
2013-05-31 16:19:00,80.9,61.6,29.86,SSE,159,9.0,9.0,52,0.00,,---,0.00,VWS V14.01,2013-05-31 23:19:00,
2013-05-31 16:24:00,80.5,61.3,29.86,SE,133,0.0,9.0,52,0.00,,---,0.00,VWS V14.01,2013-05-31 23:24:00,
2013-05-31 16:29:00,80.3,61.6,29.86,SSW,205,0.0,2.0,53,0.00,,---,0.00,VWS V14.01,2013-05-31 23:29:00,
2013-05-31 16:34:00,80.4,61.7,29.85,South,185,1.0,8.0,53,0.00,,---,0.00,VWS V14.01,2013-05-31 23:34:00,
2013-05-31 16:39:00,80.6,61.9,29.85,SSE,165,1.0,8.0,53,0.00,,---,0.00,VWS V14.01,2013-05-31 23:39:00,
2013-05-31 16:44:00,80.5,61.8,29.85,SW,227,1.0,8.0,53,0.00,,---,0.00,VWS V14.01,2013-05-31 23:44:00,
2013-05-31 16:49:00,81.0,61.7,29.85,East,94,0.0,8.0,52,0.00,,---,0.00,VWS V14.01,2013-05-31 23:49:00,
2013-05-31 16:54:00,80.5,61.8,29.85,SW,217,0.0,9.0,53,0.00,,---,0.00,VWS V14.01,2013-05-31 23:54:00,
2013-05-31 16:59:00,80.7,61.5,29.85,West,270,3.0,4.0,52,0.00,,---,0.00,VWS V14.01,2013-05-31 23:59:00,
2013-05-31 17:04:00,80.9,62.2,29.85,SSE,166,0.0,5.0,53,0.00,,---,0.00,VWS V14.01,2013-06-01 00:04:00,
2013-05-31 17:09:00,81.4,62.1,29.85,West,270,0.0,5.0,52,0.00,,---,0.00,VWS V14.01,2013-06-01 00:09:00,
2013-05-31 17:14:00,81.3,62.0,29.85,SSW,201,0.0,5.0,52,0.00,,---,0.00,VWS V14.01,2013-06-01 00:14:00,
2013-05-31 17:19:00,81.3,62.0,29.85,South,171,0.0,5.0,52,0.00,,---,0.00,VWS V14.01,2013-06-01 00:19:00,
2013-05-31 17:24:00,81.2,61.9,29.86,WSW,245,0.0,5.0,52,0.00,,---,0.00,VWS V14.01,2013-06-01 00:24:00,
2013-05-31 17:29:00,80.9,61.6,29.85,WNW,297,0.0,6.0,52,0.00,,---,0.00,VWS V14.01,2013-06-01 00:29:00,
2013-05-31 17:34:00,80.3,61.6,29.85,WNW,297,2.0,6.0,53,0.00,,---,0.00,VWS V14.01,2013-06-01 00:34:00,
2013-05-31 17:39:00,80.1,61.4,29.85,SSW,198,7.0,7.0,53,0.00,,---,0.00,VWS V14.01,2013-06-01 00:39:00,
2013-05-31 17:44:00,79.9,61.8,29.85,WSW,240,0.0,7.0,54,0.00,,---,0.00,VWS V14.01,2013-06-01 00:44:00,
2013-05-31 17:49:00,79.7,61.6,29.85,SW,215,1.0,10.0,54,0.00,,---,0.00,VWS V14.01,2013-06-01 00:49:00,
2013-05-31 17:54:00,79.4,61.8,29.86,South,182,0.0,10.0,55,0.00,,---,0.00,VWS V14.01,2013-06-01 00:54:00,
2013-05-31 17:59:00,79.2,61.7,29.86,SW,236,0.0,3.0,55,0.00,,---,0.00,VWS V14.01,2013-06-01 00:59:00,
2013-05-31 18:04:00,79.1,62.6,29.86,South,188,1.0,5.0,57,0.00,,---,0.00,VWS V14.01,2013-06-01 01:04:00,
2013-05-31 18:09:00,78.1,62.6,29.85,SSE,147,0.0,11.0,59,0.00,,---,0.00,VWS V14.01,2013-06-01 01:09:00,
2013-05-31 18:14:00,77.4,62.4,29.86,South,190,0.0,11.0,60,0.00,,---,0.00,VWS V14.01,2013-06-01 01:14:00,
2013-05-31 18:19:00,77.0,62.5,29.86,SSE,159,0.0,11.0,61,0.00,,---,0.00,VWS V14.01,2013-06-01 01:19:00,
2013-05-31 18:24:00,76.6,62.6,29.86,SE,134,0.0,11.0,62,0.00,,---,0.00,VWS V14.01,2013-06-01 01:24:00,
2013-05-31 18:29:00,75.9,62.4,29.86,West,261,0.0,1.0,63,0.00,,---,0.00,VWS V14.01,2013-06-01 01:29:00,
2013-05-31 18:34:00,75.5,62.5,29.86,ESE,121,0.0,5.0,64,0.00,,---,0.00,VWS V14.01,2013-06-01 01:34:00,
2013-05-31 18:39:00,75.4,62.4,29.86,SW,225,0.0,5.0,64,0.00,,---,0.00,VWS V14.01,2013-06-01 01:39:00,
2013-05-31 18:44:00,74.9,62.3,29.87,South,175,2.0,8.0,65,0.00,,---,0.00,VWS V14.01,2013-06-01 01:44:00,
2013-05-31 18:49:00,74.4,62.3,29.87,NNE,28,0.0,8.0,66,0.00,,---,0.00,VWS V14.01,2013-06-01 01:49:00,
2013-05-31 18:54:00,74.0,62.4,29.87,SSW,205,0.0,8.0,67,0.00,,---,0.00,VWS V14.01,2013-06-01 01:54:00,
2013-05-31 18:59:00,73.8,62.2,29.87,South,178,0.0,1.0,67,0.00,,---,0.00,VWS V14.01,2013-06-01 01:59:00,
2013-05-31 19:04:00,73.4,61.8,29.88,South,173,0.0,6.0,67,0.00,,---,0.00,VWS V14.01,2013-06-01 02:04:00,
2013-05-31 19:09:00,72.9,61.7,29.88,West,279,0.0,6.0,68,0.00,,---,0.00,VWS V14.01,2013-06-01 02:09:00,
2013-05-31 19:14:00,72.6,61.9,29.88,ESE,123,0.0,6.0,69,0.00,,---,0.00,VWS V14.01,2013-06-01 02:14:00,
2013-05-31 19:19:00,72.3,62.0,29.88,South,182,0.0,6.0,70,0.00,,---,0.00,VWS V14.01,2013-06-01 02:19:00,
2013-05-31 19:24:00,72.1,61.8,29.88,South,186,0.0,6.0,70,0.00,,---,0.00,VWS V14.01,2013-06-01 02:24:00,
2013-05-31 19:29:00,71.7,61.8,29.88,South,182,0.0,1.0,71,0.00,,---,0.00,VWS V14.01,2013-06-01 02:29:00,
2013-05-31 19:34:00,71.4,61.5,29.88,SSW,198,2.0,2.0,71,0.00,,---,0.00,VWS V14.01,2013-06-01 02:34:00,
2013-05-31 19:39:00,71.0,61.1,29.89,SE,127,0.0,4.0,71,0.00,,---,0.00,VWS V14.01,2013-06-01 02:39:00,
2013-05-31 19:44:00,70.7,61.2,29.89,SE,136,0.0,4.0,72,0.00,,---,0.00,VWS V14.01,2013-06-01 02:44:00,
2013-05-31 19:49:00,70.2,61.2,29.89,North,360,0.0,4.0,73,0.00,,---,0.00,VWS V14.01,2013-06-01 02:49:00,
2013-05-31 19:54:00,69.9,60.9,29.89,SSW,202,0.0,4.0,73,0.00,,---,0.00,VWS V14.01,2013-06-01 02:54:00,
2013-05-31 19:59:00,69.6,61.0,29.89,NE,53,0.0,0.0,74,0.00,,---,0.00,VWS V14.01,2013-06-01 02:59:00,
2013-05-31 20:04:00,69.3,60.7,29.89,East,91,0.0,1.0,74,0.00,,---,0.00,VWS V14.01,2013-06-01 03:04:00,
2013-05-31 20:09:00,68.9,60.7,29.90,East,91,0.0,1.0,75,0.00,,---,0.00,VWS V14.01,2013-06-01 03:09:00,
2013-05-31 20:14:00,68.5,60.3,29.90,SE,139,0.0,4.0,75,0.00,,---,0.00,VWS V14.01,2013-06-01 03:14:00,
2013-05-31 20:19:00,68.1,60.3,29.90,South,174,0.0,4.0,76,0.00,,---,0.00,VWS V14.01,2013-06-01 03:19:00,
2013-05-31 20:24:00,67.7,59.9,29.90,South,175,0.0,4.0,76,0.00,,---,0.00,VWS V14.01,2013-06-01 03:24:00,
2013-05-31 20:29:00,67.5,60.0,29.90,South,175,0.0,1.0,77,0.00,,---,0.00,VWS V14.01,2013-06-01 03:29:00,
2013-05-31 20:34:00,67.2,60.1,29.90,South,175,0.0,1.0,78,0.00,,---,0.00,VWS V14.01,2013-06-01 03:34:00,
2013-05-31 20:39:00,66.9,59.8,29.90,South,175,0.0,1.0,78,0.00,,---,0.00,VWS V14.01,2013-06-01 03:39:00,
2013-05-31 20:44:00,66.7,60.0,29.91,South,178,0.0,1.0,79,0.00,,---,0.00,VWS V14.01,2013-06-01 03:44:00,
2013-05-31 20:49:00,66.5,60.2,29.91,SSW,207,0.0,5.0,80,0.00,,---,0.00,VWS V14.01,2013-06-01 03:49:00,
2013-05-31 20:54:00,66.3,60.0,29.91,SSW,207,0.0,5.0,80,0.00,,---,0.00,VWS V14.01,2013-06-01 03:54:00,
2013-05-31 20:59:00,66.0,60.0,29.91,SSW,213,0.0,0.0,81,0.00,,---,0.00,VWS V14.01,2013-06-01 03:59:00,
2013-05-31 21:01:00,65.9,59.9,29.91,SSW,213,0.0,0.0,81,0.00,,---,0.00,VWS V14.01,2013-06-01 04:01:00,
2013-05-31 21:06:00,65.8,60.2,29.91,SSW,213,0.0,1.0,82,0.00,,---,0.00,VWS V14.01,2013-06-01 04:06:00,
2013-05-31 21:11:00,65.6,60.0,29.91,SSW,213,0.0,1.0,82,0.00,,---,0.00,VWS V14.01,2013-06-01 04:11:00,
2013-05-31 21:16:00,65.3,59.7,29.91,SSW,213,0.0,1.0,82,0.00,,---,0.00,VWS V14.01,2013-06-01 04:16:00,
2013-05-31 21:21:00,65.2,59.9,29.91,SSW,213,0.0,1.0,83,0.00,,---,0.00,VWS V14.01,2013-06-01 04:21:00,
2013-05-31 21:26:00,65.0,59.7,29.91,SSW,213,0.0,1.0,83,0.00,,---,0.00,VWS V14.01,2013-06-01 04:26:00,
2013-05-31 21:31:00,64.8,59.9,29.92,SSW,213,0.0,0.0,84,0.00,,---,0.00,VWS V14.01,2013-06-01 04:31:00,
2013-05-31 21:36:00,64.6,59.7,29.92,SSW,213,1.0,1.0,84,0.00,,---,0.00,VWS V14.01,2013-06-01 04:36:00,
2013-05-31 21:41:00,64.4,59.5,29.92,SSW,213,0.0,1.0,84,0.00,,---,0.00,VWS V14.01,2013-06-01 04:41:00,
2013-05-31 21:46:00,64.3,59.7,29.92,SSW,213,0.0,1.0,85,0.00,,---,0.00,VWS V14.01,2013-06-01 04:46:00,
2013-05-31 21:51:00,64.1,59.5,29.92,SSW,213,0.0,1.0,85,0.00,,---,0.00,VWS V14.01,2013-06-01 04:51:00,
2013-05-31 21:56:00,63.9,59.6,29.92,SSW,213,0.0,1.0,86,0.00,,---,0.00,VWS V14.01,2013-06-01 04:56:00,
2013-05-31 22:01:00,63.8,59.5,29.92,SSW,213,0.0,0.0,86,0.00,,---,0.00,VWS V14.01,2013-06-01 05:01:00,
2013-05-31 22:06:00,63.6,59.3,29.92,SSW,213,0.0,0.0,86,0.00,,---,0.00,VWS V14.01,2013-06-01 05:06:00,
2013-05-31 22:11:00,63.5,59.6,29.92,SSW,213,0.0,0.0,87,0.00,,---,0.00,VWS V14.01,2013-06-01 05:11:00,
2013-05-31 22:16:00,63.3,59.4,29.92,SSW,213,0.0,0.0,87,0.00,,---,0.00,VWS V14.01,2013-06-01 05:16:00,
2013-05-31 22:21:00,63.2,59.3,29.92,SSW,213,0.0,0.0,87,0.00,,---,0.00,VWS V14.01,2013-06-01 05:21:00,
2013-05-31 22:26:00,63.2,59.3,29.92,SSW,213,0.0,0.0,87,0.00,,---,0.00,VWS V14.01,2013-06-01 05:26:00,
2013-05-31 22:31:00,63.1,59.2,29.92,SSW,213,0.0,0.0,87,0.00,,---,0.00,VWS V14.01,2013-06-01 05:31:00,
2013-05-31 22:36:00,62.9,59.0,29.92,SSW,213,0.0,0.0,87,0.00,,---,0.00,VWS V14.01,2013-06-01 05:36:00,
2013-05-31 22:41:00,62.7,59.1,29.92,SSW,213,0.0,0.0,88,0.00,,---,0.00,VWS V14.01,2013-06-01 05:41:00,
2013-05-31 22:46:00,62.6,59.0,29.92,SSW,213,0.0,0.0,88,0.00,,---,0.00,VWS V14.01,2013-06-01 05:46:00,
2013-05-31 22:51:00,62.5,58.9,29.92,SSW,213,0.0,0.0,88,0.00,,---,0.00,VWS V14.01,2013-06-01 05:51:00,
2013-05-31 22:56:00,62.4,59.1,29.92,SSW,213,0.0,0.0,89,0.00,,---,0.00,VWS V14.01,2013-06-01 05:56:00,
2013-05-31 23:01:00,62.3,59.0,29.92,SSW,213,0.0,0.0,89,0.00,,---,0.00,VWS V14.01,2013-06-01 06:01:00,
2013-05-31 23:06:00,62.3,59.0,29.92,SSW,213,0.0,0.0,89,0.00,,---,0.00,VWS V14.01,2013-06-01 06:06:00,
2013-05-31 23:11:00,62.3,59.0,29.92,SSW,213,0.0,0.0,89,0.00,,---,0.00,VWS V14.01,2013-06-01 06:11:00,
2013-05-31 23:15:00,62.1,58.8,29.92,SSW,213,0.0,0.0,89,0.00,,---,0.00,VWS V14.01,2013-06-01 06:15:00,
2013-05-31 23:21:00,62.0,59.0,29.92,SSW,213,0.0,0.0,90,0.00,,---,0.00,VWS V14.01,2013-06-01 06:21:00,
2013-05-31 23:25:00,61.9,58.9,29.92,SSW,213,0.0,0.0,90,0.00,,---,0.00,VWS V14.01,2013-06-01 06:25:00,
2013-05-31 23:30:00,61.7,58.7,29.91,SSW,213,0.0,0.0,90,0.00,,---,0.00,VWS V14.01,2013-06-01 06:30:00,
2013-05-31 23:35:00,61.7,58.7,29.92,SSW,213,0.0,0.0,90,0.00,,---,0.00,VWS V14.01,2013-06-01 06:35:00,
2013-05-31 23:40:00,61.5,58.5,29.91,SSW,213,0.0,0.0,90,0.00,,---,0.00,VWS V14.01,2013-06-01 06:40:00,
2013-05-31 23:45:00,61.4,58.5,29.91,SSW,213,0.0,0.0,90,0.00,,---,0.00,VWS V14.01,2013-06-01 06:45:00,
2013-05-31 23:50:00,61.2,58.2,29.91,SSW,213,0.0,0.0,90,0.00,,---,0.00,VWS V14.01,2013-06-01 06:50:00,
2013-05-31 23:55:00,61.0,58.0,29.91,SSW,213,0.0,0.0,90,0.00,,---,0.00,VWS V14.01,2013-06-01 06:55:00,